Weather Roundup
Issued by NWS Springfield, MO

Home | Current Version | Previous Version | Text Only | Print | Product List | Glossary On
Versions: 1 2 3 4 5 6 7 8 9 10 11 12 13 14 15 16 17 18 19 20 21 22 23 24 25 26 27 28 29 30 31 32 33 34 35 36 37 38 39 40 41 42 43 44 45 46 47 48 49 50
000
NZUS99 KSGF 181007
HRRSGF

HOURLY WEATHER
NATIONAL WEATHER SERVICE SPRINGFIELD MO
400 AM CST THU JAN 18 2018

......SGF CWA......

CITY           SKY/WX    TMP DP  RH WIND       PRES   REMARKS
SPRINGFIELD    CLOUDY    10   4  76 S3        30.40F
JOPLIN         CLOUDY    21   8  57 SW16      30.43F WCI   7
WEST PLAINS    CLOUDY    14   7  73 SW6       30.43F WCI   5
ROLLA          CLOUDY    14   7  73 SW12      30.39F WCI   0
OSAGE BEACH    CLOUDY    10   4  76 S6        30.42F WCI   0
BRANSON        CLOUDY    18   5  57 CALM      30.43F

......SURROUNDING SGF CWA......

CITY           SKY/WX    TMP DP  RH WIND       PRES   REMARKS
CHANUTE          N/A    N/A N/A N/A MISG      30.39F
PARSONS        CLOUDY    15   8  73 S6        30.42F WCI   6
COFFEYVILLE    CLOUDY    17   9  70 S10       30.44F WCI   5
EMPORIA        CLEAR     15   7  70 S6        30.31F WCI   6
GROVE OK       CLOUDY    19  12  73 S5        30.47F WCI  13
ROGERS AR      CLOUDY    17   7  64 SW8       30.45F WCI   7
SILOAM SPRINGS CLOUDY    16   7  67 S8        30.47  WCI   5
HARRISON AR    CLOUDY    15   7  70 E3        30.42F
NEAR YELLVILLE CLOUDY     7   4  87 CALM      30.49F

......KANSAS AND MISSOURI......

CITY           SKY/WX    TMP DP  RH WIND       PRES   REMARKS
KANSAS CTY INT CLEAR     17   7  64 S9        30.30F WCI   6
DOWNTOWN KC    CLOUDY    22   8  55 SW9       30.33F WCI  12
COLUMBIA       CLOUDY    14   8  77 S9        30.37F WCI   2
SEDALIA        CLOUDY    20  10  65 SW16G24   30.36F WCI   6
ST JOSEPH      CLOUDY    16   9  74 S8        30.29F WCI   5
ST LOUIS       CLOUDY    19   9  65 W9        30.41F WCI   8
SPIRIT OF STL  CLOUDY    19   9  65 SW8       30.41F WCI   9
KIRKSVILLE     CLOUDY    16  11  80 SW10      30.28F WCI   4
WICHITA        CLOUDY    19   8  62 S13       30.32F WCI   6
TOPEKA         CLOUDY    19   9  65 SW5       30.31F WCI  12
OLATHE         CLOUDY    16   7  67 S7        30.32F WCI   6

......TENNESSEE......

CITY           SKY/WX    TMP DP  RH WIND       PRES   REMARKS
MEMPHIS        FAIR      12   8  84 CALM      30.56F
NASHVILLE      FAIR       8   4  83 S3        30.53F

......ARKANSAS.......

CITY           SKY/WX    TMP DP  RH WIND       PRES   REMARKS
FAYETTEVILLE   CLOUDY    11   6  81 CALM      30.47S
FT SMITH       CLOUDY    14  10  84 CALM      30.54F
LITTLE ROCK    FAIR      13   9  84 SW3       30.57F

......OKLAHOMA.......

CITY           SKY/WX    TMP DP  RH WIND       PRES   REMARKS
TULSA          CLOUDY    24   8  50 S8        30.46F WCI  15
PONCA CITY     CLOUDY    21   4  47 S6        30.41F WCI  13
MCALESTER      CLOUDY    20   8  60 S5        30.51F WCI  13
OKLAHOMA CITY  CLOUDY    19   5  54 S13       30.42F WCI   6

......IOWA............

CITY           SKY/WX    TMP DP  RH WIND       PRES   REMARKS
DES MOINES     CLOUDY    21  11  65 SW10      30.18F WCI  10
QUAD CITIES    FAIR      18  11  74 SW10      30.21F WCI   6

......ILLINOIS........

CITY           SKY/WX    TMP DP  RH WIND       PRES   REMARKS
QUINCY         CLOUDY    16   9  74 SW13      30.30F WCI   2
CHICAGO        FAIR      17   9  70 W12       30.15S WCI   4




USA.gov is the U.S. government's official web portal to all federal, state and local government web resources and services.